This is the latest recevied weather packets stored in our database for station/object KD8OZS. If no packets are shown the sender has not sent any weather packets the latest 10 day(s).
| Time | Temp. | Humidity | Pressure | Rain* | Wind** | Luminosity | Snow |
|---|---|---|---|---|---|---|---|
| 1788108793 | 25° C | 81% | 1014.6 hPa | 0 mm | - | 145 W/m² | - |
| 1788108489 | 25.56° C | 81% | 1014.5 hPa | 0 mm | - | 170 W/m² | - |
| 1788108185 | 25.56° C | 81% | 1014.6 hPa | 0 mm | - | 222 W/m² | - |
| 1788107882 | 25° C | 82% | 1014.5 hPa | 0 mm | - | 255 W/m² | - |
| 1788107577 | 25° C | 82% | 1014.9 hPa | 0 mm | - | 206 W/m² | - |
| 1788107271 | 25° C | 82% | 1014.8 hPa | 0 mm | - | 227 W/m² | - |
| 1788106968 | 25° C | 82% | 1014.8 hPa | 0 mm | - | 191 W/m² | - |
| 1788106663 | 25° C | 83% | 1014.6 hPa | 0 mm | - | 203 W/m² | - |
| 1788106362 | 24.44° C | 86% | 1014.6 hPa | 0 mm | - | 225 W/m² | - |
| 1788106057 | 23.89° C | 87% | 1014.9 hPa | 0 mm | - | 205 W/m² | - |
| 1788105752 | 23.89° C | 89% | 1014.7 hPa | 0 mm | - | 205 W/m² | - |
| 1788105448 | 23.89° C | 88% | 1014.6 hPa | 0 mm | - | 167 W/m² | - |
| 1788105144 | 23.89° C | 89% | 1014.6 hPa | 0 mm | - | 136 W/m² | - |
| 1788104839 | 23.89° C | 86% | 1014.6 hPa | 0 mm | - | 144 W/m² | - |
| 1788104534 | 24.44° C | 87% | 1014.5 hPa | 0 mm | - | 145 W/m² | - |
| 1788104232 | 23.89° C | 85% | 1014.3 hPa | 0 mm | - | 113 W/m² | - |
| 1788103926 | 23.89° C | 87% | 1014.5 hPa | 0 mm | - | 110 W/m² | - |
| 1788103624 | 23.89° C | 87% | 1014.3 hPa | 0 mm | - | 114 W/m² | - |
| 1788103324 | 23.89° C | 87% | 1014.2 hPa | 0 mm | - | 133 W/m² | - |
| 1788103019 | 23.33° C | 88% | 1014.1 hPa | 0 mm | - | 147 W/m² | - |
| 1788102718 | 23.33° C | 88% | 1014.3 hPa | 0 mm | - | 137 W/m² | - |
| 1788102414 | 23.33° C | 89% | 1014.1 hPa | 0 mm | - | 113 W/m² | - |
| 1788102108 | 22.78° C | 88% | 1014.1 hPa | 0 mm | - | 98 W/m² | - |
| 1788101808 | 23.33° C | 88% | 1014 hPa | 0 mm | - | 92 W/m² | - |
| 1788101503 | 23.33° C | 88% | 1013.8 hPa | 0 mm | - | 78 W/m² | - |
* Rain latest hour (hover to see other rain measurements)
** Current wind speed in m/s (hover to see current wind gust speed)